[[{"header":{"parameterUnit":"m.s-1","parameterCategory":1,"la1":30.2991,"la2":30.254,"lo1":-89.0895,"lo2":-89.0444,"dy":0.0017,"dx":0.0017,"nx":28,"ny":28,"refTime":"2024-10-21T03:00:00:Z","depth":0,"parameterNumber":2,"parameterNumberName":"U-component_of_WINDS"},"data":[0,0,0,0,0,0,0,0,0,0,0,0,0,0,0,0,0,0,0,0,0,0,0,0,0,0,0,0,0,0,0,0,0,0,0,0,0,0,0,0,0,0,0,0,0,0,0,0,0,0,0,0,0,0,0,0,0,0,-1.235,-1.235,0,-1.2343,-1.2343,-1.2343,-1.2287,-1.2286,-1.2284,-1.2283,-1.2276,-1.2277,-1.2278,0,0,0,0,0,0,0,0,0,0,0,0,0,-1.2317,-1.2318,-1.235,-1.235,-1.235,-1.2343,-1.2343,-1.2343,-1.2287,-1.2285,-1.2284,-1.2282,-1.2275,-1.2277,-1.2278,0,0,0,0,0,0,0,0,0,0,0,0,0,-1.2323,-1.2318,-1.2351,-1.2322,-1.2319,-1.2343,-1.2343,-1.2343,-1.2288,-1.2285,-1.2283,-1.2281,-1.2275,-1.2276,-1.2278,-1.2329,0,0,-1.2283,-1.2284,0,0,0,0,0,0,0,0,-1.2323,-1.2324,-1.2326,-1.2324,-1.2321,-1.2314,-1.2328,-1.2338,-1.2288,-1.23,-1.2283,-1.228,-1.229,-1.229,-1.2293,-1.2329,-1.2328,-1.2283,-1.2284,-1.2285,-1.2285,0,0,0,0,0,0,0,-1.2322,-1.2324,-1.2347,-1.2326,-1.2323,-1.2309,-1.2308,-1.233,-1.2306,-1.2298,-1.2294,-1.2294,-1.2288,-1.2292,-1.2293,-1.2328,-1.2283,-1.2285,-1.2286,-1.2286,-1.2405,-1.2407,0,0,0,0,0,0,-1.2326,-1.2324,-1.2348,-1.2347,-1.2317,-1.2312,-1.231,-1.2318,-1.2306,-1.2302,-1.2296,-1.2292,-1.229,-1.2291,-1.2292,-1.2351,-1.2285,-1.2286,-1.2287,-1.2403,-1.2405,-1.2408,0,0,0,0,0,0,-1.2325,-1.2329,-1.2348,-1.2335,-1.2336,-1.2314,-1.2324,-1.2319,-1.2323,-1.2304,-1.23,-1.2304,-1.2289,-1.229,-1.232,-1.235,-1.2287,-1.2289,-1.24,-1.2404,-1.2407,-1.2468,0,0,0,0,0,0,-1.2325,-1.2329,-1.2348,-1.2336,-1.2337,-1.2376,-1.2326,-1.232,-1.2326,-1.232,-1.2311,-1.2307,-1.2287,-1.2318,-1.2322,-1.2351,-1.229,-1.2397,-1.2402,-1.2406,-1.2464,-1.2473,-1.2482,0,0,0,0,0,-1.2324,-1.2366,-1.2349,-1.2352,-1.236,-1.2378,-1.2379,-1.2355,-1.2328,-1.2347,-1.2335,-1.2307,-1.2346,-1.2322,-1.2325,-1.2355,-1.2395,-1.2401,-1.2405,-1.246,-1.2471,-1.2482,0,0,0,0,0,0,-1.2382,-1.2363,-1.2345,-1.2384,-1.2383,-1.2368,-1.2391,-1.2368,-1.2375,-1.2369,-1.2339,-1.2338,-1.2372,-1.2367,-1.234,-1.2404,-1.2366,-1.2372,-1.2406,-1.2417,-1.2426,-1.2426,-1.2291,0,0,0,0,0,-1.2399,-1.2415,-1.2398,-1.2434,-1.2435,-1.2414,-1.242,-1.2402,-1.24,-1.2399,-1.2389,-1.2388,-1.24,-1.2408,-1.2418,-1.2463,-1.246,-1.2485,-1.2495,-1.2502,-1.2507,-1.253,-1.2541,-1.2424,-1.2424,-1.2424,0,0,-1.2435,-1.2427,-1.2439,-1.2446,-1.2443,-1.246,-1.2413,-1.2433,-1.2445,-1.2402,-1.2429,-1.2423,-1.242,-1.2457,-1.2473,-1.2454,-1.2539,-1.2508,-1.2514,-1.2515,-1.2536,-1.2547,-1.2557,-1.2427,-1.2427,-1.2426,0,0,-1.2509,-1.2505,-1.2534,-1.2533,-1.2529,-1.2514,-1.2522,-1.2511,-1.2504,-1.2532,-1.2499,-1.2514,-1.2535,-1.2534,-1.2536,-1.2611,-1.2585,-1.2615,-1.2662,-1.2684,-1.2693,-1.2701,-1.2727,-1.2737,-1.262,-1.262,-1.262,0,-1.2555,-1.2578,-1.2553,-1.2574,-1.2578,-1.254,-1.2569,-1.2569,-1.2569,-1.2572,-1.2551,-1.2576,-1.2572,-1.2608,-1.2626,-1.263,-1.2637,-1.2615,-1.2694,-1.2702,-1.2709,-1.2733,-1.2743,-1.2624,-1.2623,-1.2623,-1.2623,0,-1.2634,-1.2651,-1.2675,-1.2676,-1.2682,-1.2708,-1.2686,-1.2696,-1.2678,-1.2666,-1.2694,-1.2688,-1.2695,-1.2703,-1.2685,-1.2737,-1.2725,-1.2699,-1.266,-1.2724,-1.2746,-1.2755,-1.2629,-1.2628,-1.2627,-1.2626,0,0,-1.2743,-1.2729,-1.2738,-1.2738,-1.2731,-1.2744,-1.2768,-1.2776,-1.2784,-1.2786,-1.2805,-1.2824,-1.2801,-1.2803,-1.2785,-1.2805,-1.2864,-1.2777,-1.2776,-1.2792,-1.292,-1.2938,-1.2949,-1.2847,-1.2849,-1.285,-1.2919,0,-1.2813,-1.2853,-1.2831,-1.2874,-1.2889,-1.2853,-1.2874,-1.2872,-1.2862,-1.2874,-1.2863,-1.2876,-1.2845,-1.2846,-1.2864,-1.2853,-1.2889,-1.2848,-1.2864,-1.2865,-1.2865,-1.2961,-1.298,-1.3046,-1.2928,-1.2929,-1.2931,0,-1.2899,-1.2904,-1.2949,-1.2939,-1.2945,-1.2964,-1.2969,-1.2981,-1.2978,-1.297,-1.2973,-1.295,-1.2973,-1.2936,-1.2967,-1.294,-1.2945,-1.2941,-1.2943,-1.2942,-1.2901,-1.2962,-1.3066,-1.3075,-1.2944,-1.2943,-1.2942,0,-1.2973,-1.2991,-1.302,-1.3021,-1.3011,-1.3025,-1.3021,-1.3017,-1.3023,-1.3027,-1.3031,-1.3039,-1.3042,-1.3049,-1.3029,-1.3004,-1.3062,-1.3024,-1.3055,-1.3056,-1.3068,-1.3067,-1.3173,-1.3074,-1.3074,-1.3074,-1.3074,0,-1.3053,-1.3081,-1.3053,-1.307,-1.3101,-1.3076,-1.3107,-1.31,-1.3096,-1.3112,-1.3082,-1.3097,-1.3071,-1.3083,-1.3068,-1.3096,-1.3098,-1.3091,-1.3086,-1.3093,-1.3094,-1.3095,-1.309,-1.3076,-1.3076,-1.3075,-1.3075,0,-1.3139,-1.3122,-1.315,-1.3139,-1.3136,-1.3159,-1.3149,-1.3165,-1.3153,-1.3173,-1.3177,-1.3158,-1.3172,-1.3153,-1.3164,-1.3154,-1.3192,-1.3181,-1.3192,-1.3189,-1.3221,-1.3218,-1.3331,-1.3344,-1.3238,-1.3239,-1.324,0,-1.319,-1.3211,-1.3202,-1.321,-1.3208,-1.3222,-1.3228,-1.3204,-1.3212,-1.3211,-1.3227,-1.3238,-1.3245,-1.3268,-1.3256,-1.3265,-1.3253,-1.3292,-1.3254,-1.326,-1.3252,-1.325,-1.3252,-1.3299,-1.33,-1.3302,-1.3302,0,-1.3282,-1.3273,-1.3282,-1.3289,-1.3297,-1.3301,-1.3303,-1.3312,-1.3287,-1.3297,-1.3311,-1.3317,-1.3328,-1.3339,-1.3345,-1.3341,-1.3318,-1.3315,-1.3322,-1.3328,-1.3334,-1.333,-1.3212,-1.3312,-1.3311,-1.331,-1.331,-1.3309,-1.3352,-1.3368,-1.3364,-1.3376,-1.3375,-1.3378,-1.3392,-1.3383,-1.3393,-1.3401,-1.3387,-1.3404,-1.3401,-1.3406,-1.3405,-1.3418,-1.3401,-1.3412,-1.3415,-1.3418,-1.3422,-1.3333,-1.3419,-1.3419,-1.3419,-1.3418,-1.3418,0,-1.3441,-1.3437,-1.3448,-1.3452,-1.3461,-1.3439,-1.344,-1.345,-1.3465,-1.3464,-1.3472,-1.3488,-1.3499,-1.3488,-1.3496,-1.3509,-1.3498,-1.3512,-1.351,-1.3509,-1.3437,-1.3429,-1.352,-1.352,-1.352,-1.352,-1.352,-1.352,-1.3488,-1.3515,-1.3505,-1.3532,-1.3528,-1.3544,-1.3546,-1.3549,-1.3548,-1.3567,-1.3576,-1.3569,-1.3564,-1.3572,-1.3581,-1.3578,-1.3582,-1.3599,-1.3592,-1.3524,-1.3514,-1.3505,-1.3497,-1.36,-1.3601,-1.3662,-1.3663,-1.3663]},{"header":{"parameterUnit":"m.s-1","parameterCategory":1,"la1":30.2991,"la2":30.254,"lo1":-89.0895,"lo2":-89.0444,"dy":0.0017,"dx":0.0017,"nx":28,"ny":28,"refTime":"2024-10-21T03:00:00:Z","depth":0,"parameterNumber":3,"parameterNumberName":"V-component_of_WINDS"},"data":[0,0,0,0,0,0,0,0,0,0,0,0,0,0,0,0,0,0,0,0,0,0,0,0,0,0,0,0,0,0,0,0,0,0,0,0,0,0,0,0,0,0,0,0,0,0,0,0,0,0,0,0,0,0,0,0,0,0,-3.3636,-3.3637,0,-3.3725,-3.3726,-3.3727,-3.3712,-3.3711,-3.3709,-3.3708,-3.3795,-3.3799,-3.3802,0,0,0,0,0,0,0,0,0,0,0,0,0,-3.3449,-3.3452,-3.3636,-3.3637,-3.3638,-3.3725,-3.3726,-3.3727,-3.3713,-3.3711,-3.3709,-3.3707,-3.3794,-3.3798,-3.3803,0,0,0,0,0,0,0,0,0,0,0,0,0,-3.3533,-3.3453,-3.3635,-3.3641,-3.3643,-3.3725,-3.3726,-3.3728,-3.3713,-3.3711,-3.3708,-3.3706,-3.3792,-3.3798,-3.3803,-3.3884,0,0,-3.382,-3.3823,0,0,0,0,0,0,0,0,-3.3528,-3.354,-3.3639,-3.3641,-3.3643,-3.3705,-3.3692,-3.378,-3.3714,-3.3686,-3.3708,-3.3705,-3.3767,-3.3774,-3.3796,-3.3888,-3.3892,-3.3821,-3.3824,-3.3827,-3.3828,0,0,0,0,0,0,0,-3.3522,-3.3536,-3.3671,-3.3641,-3.3643,-3.3638,-3.3647,-3.3709,-3.3738,-3.3688,-3.3688,-3.3699,-3.3767,-3.3791,-3.3798,-3.3893,-3.3821,-3.3826,-3.3829,-3.3831,-3.4056,-3.4059,0,0,0,0,0,0,-3.3515,-3.3531,-3.3668,-3.3674,-3.3579,-3.3643,-3.3654,-3.3687,-3.3737,-3.3743,-3.37,-3.3698,-3.3782,-3.3791,-3.3801,-3.3899,-3.3827,-3.3832,-3.3835,-3.4054,-3.4057,-3.406,0,0,0,0,0,0,-3.3511,-3.3528,-3.3664,-3.3602,-3.3619,-3.3649,-3.3687,-3.369,-3.3714,-3.3747,-3.3751,-3.3719,-3.3781,-3.3793,-3.3864,-3.3902,-3.3834,-3.384,-3.405,-3.4055,-3.4058,-3.4095,0,0,0,0,0,0,-3.3506,-3.3526,-3.3558,-3.3603,-3.3623,-3.3727,-3.3689,-3.3694,-3.3724,-3.3721,-3.3765,-3.3771,-3.378,-3.3856,-3.3869,-3.3908,-3.3844,-3.4047,-3.4052,-3.4057,-3.4091,-3.41,-3.4108,0,0,0,0,0,-3.35,-3.3564,-3.356,-3.3577,-3.3663,-3.3729,-3.374,-3.3751,-3.3727,-3.3759,-3.378,-3.3769,-3.3896,-3.3863,-3.3878,-3.3919,-3.4045,-3.4051,-3.4057,-3.4087,-3.4098,-3.4108,0,0,0,0,0,0,-3.3521,-3.357,-3.3566,-3.3647,-3.3685,-3.3727,-3.3767,-3.3762,-3.3806,-3.3801,-3.3811,-3.3821,-3.3893,-3.3913,-3.3876,-3.4,-3.3967,-3.3976,-3.3985,-3.3996,-3.4004,-3.3997,-3.3849,0,0,0,0,0,-3.3536,-3.3587,-3.3626,-3.3694,-3.3713,-3.3737,-3.3766,-3.3771,-3.381,-3.3825,-3.3851,-3.3887,-3.3935,-3.3967,-3.4012,-3.4094,-3.4103,-3.413,-3.4138,-3.4145,-3.4153,-3.4197,-3.421,-3.4079,-3.4079,-3.4079,0,0,-3.3565,-3.3599,-3.363,-3.3699,-3.3729,-3.378,-3.375,-3.3806,-3.3844,-3.3833,-3.3902,-3.3922,-3.3964,-3.404,-3.4075,-3.4059,-3.4191,-3.4153,-3.4158,-3.4162,-3.4205,-3.4217,-3.4228,-3.4083,-3.4082,-3.4081,0,0,-3.3646,-3.3677,-3.3737,-3.3767,-3.3813,-3.3829,-3.3843,-3.3887,-3.3901,-3.3971,-3.3964,-3.4008,-3.4091,-3.412,-3.4146,-3.424,-3.4231,-3.4254,-3.4299,-3.4342,-3.4352,-3.4362,-3.4395,-3.4406,-3.4262,-3.4262,-3.4262,0,-3.3677,-3.3756,-3.3768,-3.3825,-3.3855,-3.385,-3.391,-3.3939,-3.3996,-3.4017,-3.3999,-3.4103,-3.413,-3.4214,-3.4237,-3.4258,-3.4274,-3.4249,-3.435,-3.436,-3.4368,-3.44,-3.4412,-3.4265,-3.4264,-3.4264,-3.4264,0,-3.3791,-3.3846,-3.3889,-3.3947,-3.3982,-3.404,-3.406,-3.4094,-3.4097,-3.4114,-3.4185,-3.4218,-3.4271,-3.4291,-3.4293,-3.4375,-3.4364,-3.4348,-3.4314,-3.4383,-3.4413,-3.4425,-3.4268,-3.4267,-3.4267,-3.4266,0,0,-3.3887,-3.3952,-3.3968,-3.3994,-3.4045,-3.4086,-3.4144,-3.4197,-3.4226,-3.4267,-3.4315,-3.4385,-3.4371,-3.4401,-3.4406,-3.4444,-3.4516,-3.4424,-3.4425,-3.4439,-3.4609,-3.462,-3.4634,-3.4511,-3.4514,-3.4516,-3.4605,0,-3.3972,-3.4076,-3.4089,-3.4181,-3.4231,-3.4227,-3.4278,-3.4314,-3.4332,-3.4376,-3.4395,-3.4445,-3.4423,-3.4441,-3.4478,-3.45,-3.455,-3.4493,-3.4555,-3.4557,-3.4545,-3.465,-3.4662,-3.4745,-3.4617,-3.4619,-3.462,0,-3.4085,-3.4131,-3.4228,-3.4273,-3.4294,-3.4339,-3.439,-3.4433,-3.4473,-3.4483,-3.4517,-3.4518,-3.4577,-3.4542,-3.4622,-3.4583,-3.4609,-3.4624,-3.4627,-3.4633,-3.4593,-3.4658,-3.4772,-3.4784,-3.4639,-3.4637,-3.4636,0,-3.4145,-3.423,-3.43,-3.4323,-3.4376,-3.4408,-3.4432,-3.447,-3.4502,-3.4545,-3.4565,-3.4614,-3.4641,-3.4679,-3.4693,-3.4666,-3.4773,-3.4738,-3.4782,-3.4782,-3.4804,-3.4802,-3.4923,-3.4822,-3.4822,-3.4821,-3.4821,0,-3.4239,-3.4298,-3.4328,-3.437,-3.4437,-3.4451,-3.4516,-3.4538,-3.4573,-3.4618,-3.4618,-3.466,-3.4677,-3.4722,-3.4733,-3.4798,-3.481,-3.4819,-3.4821,-3.4819,-3.4818,-3.4836,-3.483,-3.4825,-3.4824,-3.4823,-3.4823,0,-3.4316,-3.4339,-3.4414,-3.4459,-3.4472,-3.4519,-3.4557,-3.4598,-3.4616,-3.4674,-3.4689,-3.4717,-3.477,-3.4788,-3.4852,-3.4859,-3.4935,-3.4932,-3.4922,-3.4922,-3.4965,-3.4961,-3.5101,-3.512,-3.5007,-3.5008,-3.5009,0,-3.4374,-3.4421,-3.4471,-3.4503,-3.4528,-3.4579,-3.4612,-3.4628,-3.4661,-3.4712,-3.4746,-3.48,-3.4843,-3.4929,-3.4954,-3.5003,-3.5001,-3.5047,-3.5008,-3.5005,-3.5001,-3.4998,-3.5003,-3.5054,-3.5055,-3.5056,-3.5057,0,-3.4475,-3.4484,-3.4532,-3.4584,-3.4624,-3.4665,-3.4705,-3.4731,-3.4752,-3.479,-3.4846,-3.488,-3.4946,-3.4999,-3.505,-3.5072,-3.5068,-3.5069,-3.5082,-3.508,-3.5072,-3.5076,-3.4942,-3.5065,-3.5064,-3.5064,-3.5063,-3.5063,-3.4544,-3.4585,-3.4628,-3.4682,-3.4714,-3.4752,-3.4792,-3.4816,-3.4864,-3.492,-3.4926,-3.4986,-3.5026,-3.5093,-3.5119,-3.5165,-3.5152,-3.517,-3.5175,-3.5179,-3.5182,-3.5065,-3.5174,-3.5174,-3.5174,-3.5173,-3.5173,0,-3.4645,-3.4673,-3.4722,-3.4779,-3.4821,-3.4815,-3.4859,-3.4894,-3.4948,-3.4986,-3.5029,-3.5093,-3.5145,-3.5175,-3.5226,-3.5258,-3.5257,-3.527,-3.5268,-3.5273,-3.5191,-3.5175,-3.527,-3.527,-3.527,-3.527,-3.527,-3.527,-3.4702,-3.4771,-3.4786,-3.4871,-3.4897,-3.4958,-3.4983,-3.5018,-3.5048,-3.5121,-3.5164,-3.5184,-3.5219,-3.5273,-3.532,-3.5327,-3.5346,-3.5361,-3.5367,-3.5289,-3.5279,-3.5269,-3.5254,-3.5365,-3.5365,-3.5445,-3.5446,-3.5446]}]]